Time,TemperatureF,DewpointF,PressureIn,WindDirection,WindDirectionDegrees,WindSpeedMPH,WindSpeedGustMPH,Humidity,HourlyPrecipIn,Conditions,Clouds,dailyrainin,SoftwareType,DateUTC
2013-09-13 00:11:00,58.3,55.0,29.71,North,0,0.0,-999.0,88,-99.99,,,0.00,weatherlink.com 1.10,2013-09-13 04:11:00,
2013-09-13 00:26:00,58.0,55.0,29.70,North,0,0.0,-999.0,89,-99.99,,,0.00,weatherlink.com 1.10,2013-09-13 04:26:00,
2013-09-13 00:41:00,57.8,55.0,29.72,North,0,0.0,-999.0,90,-99.99,,,0.00,weatherlink.com 1.10,2013-09-13 04:41:00,
2013-09-13 00:56:00,57.6,55.0,29.71,North,0,0.0,-999.0,91,-99.99,,,0.00,weatherlink.com 1.10,2013-09-13 04:56:00,
2013-09-13 01:11:00,57.5,55.0,29.72,North,0,0.0,-999.0,91,-99.99,,,0.00,weatherlink.com 1.10,2013-09-13 05:11:00,
2013-09-13 01:26:00,57.5,55.0,29.72,North,0,0.0,-999.0,92,-99.99,,,0.00,weatherlink.com 1.10,2013-09-13 05:26:00,
2013-09-13 01:41:00,57.3,55.0,29.72,North,0,0.0,-999.0,92,-99.99,,,0.00,weatherlink.com 1.10,2013-09-13 05:41:00,
2013-09-13 01:56:00,57.3,55.0,29.72,North,0,0.0,-999.0,92,-99.99,,,0.00,weatherlink.com 1.10,2013-09-13 05:56:00,
2013-09-13 02:11:00,57.2,55.0,29.72,West,260,0.0,-999.0,92,-99.99,,,0.00,weatherlink.com 1.10,2013-09-13 06:11:00,
2013-09-13 02:26:00,56.9,55.0,29.73,West,261,0.0,-999.0,92,-99.99,,,0.00,weatherlink.com 1.10,2013-09-13 06:26:00,
2013-09-13 02:41:00,56.5,54.0,29.72,NW,312,2.0,-999.0,92,-99.99,,,0.00,weatherlink.com 1.10,2013-09-13 06:41:00,
2013-09-13 02:56:00,56.2,54.0,29.71,NNW,347,1.0,-999.0,92,-99.99,,,0.00,weatherlink.com 1.10,2013-09-13 06:56:00,
2013-09-13 03:11:00,56.3,54.0,29.71,North,359,1.0,-999.0,92,-99.99,,,0.00,weatherlink.com 1.10,2013-09-13 07:11:00,
2013-09-13 03:26:00,56.0,54.0,29.71,North,357,0.0,-999.0,92,-99.99,,,0.00,weatherlink.com 1.10,2013-09-13 07:26:00,
2013-09-13 03:41:00,55.9,54.0,29.71,North,357,0.0,-999.0,92,-99.99,,,0.00,weatherlink.com 1.10,2013-09-13 07:41:00,
2013-09-13 03:56:00,55.7,54.0,29.70,North,357,0.0,-999.0,92,-99.99,,,0.00,weatherlink.com 1.10,2013-09-13 07:56:00,
2013-09-13 04:11:00,55.4,53.0,29.71,North,357,0.0,-999.0,92,-99.99,,,0.00,weatherlink.com 1.10,2013-09-13 08:11:00,
2013-09-13 04:26:00,55.1,53.0,29.71,North,357,0.0,-999.0,92,-99.99,,,0.00,weatherlink.com 1.10,2013-09-13 08:26:00,
2013-09-13 04:41:00,54.8,53.0,29.72,North,357,0.0,-999.0,92,-99.99,,,0.00,weatherlink.com 1.10,2013-09-13 08:41:00,
2013-09-13 04:56:00,54.7,53.0,29.72,North,357,0.0,-999.0,92,-99.99,,,0.00,weatherlink.com 1.10,2013-09-13 08:56:00,
2013-09-13 05:11:00,54.7,53.0,29.72,North,357,0.0,-999.0,93,-99.99,,,0.00,weatherlink.com 1.10,2013-09-13 09:11:00,
2013-09-13 05:26:00,54.7,53.0,29.72,North,357,0.0,-999.0,93,-99.99,,,0.00,weatherlink.com 1.10,2013-09-13 09:26:00,
2013-09-13 05:41:00,55.0,53.0,29.72,North,357,0.0,-999.0,93,-99.99,,,0.00,weatherlink.com 1.10,2013-09-13 09:41:00,
2013-09-13 05:56:00,55.3,53.0,29.72,North,357,0.0,-999.0,93,-99.99,,,0.00,weatherlink.com 1.10,2013-09-13 09:56:00,
2013-09-13 06:11:00,55.4,54.0,29.72,West,277,0.0,-999.0,93,-99.99,,,0.00,weatherlink.com 1.10,2013-09-13 10:11:00,
2013-09-13 06:26:00,55.4,54.0,29.73,West,277,0.0,-999.0,93,-99.99,,,0.00,weatherlink.com 1.10,2013-09-13 10:26:00,
2013-09-13 06:41:00,55.3,53.0,29.73,West,277,0.0,-999.0,93,-99.99,,,0.00,weatherlink.com 1.10,2013-09-13 10:41:00,
2013-09-13 06:56:00,55.4,54.0,29.74,West,277,0.0,-999.0,94,-99.99,,,0.00,weatherlink.com 1.10,2013-09-13 10:56:00,
2013-09-13 07:11:00,55.6,54.0,29.74,West,277,0.0,-999.0,94,-99.99,,,0.00,weatherlink.com 1.10,2013-09-13 11:11:00,
2013-09-13 07:26:00,55.6,54.0,29.74,West,278,0.0,-999.0,94,-99.99,,,0.00,weatherlink.com 1.10,2013-09-13 11:26:00,
2013-09-13 07:41:00,55.7,54.0,29.75,NW,305,0.0,-999.0,94,-99.99,,,0.00,weatherlink.com 1.10,2013-09-13 11:41:00,
2013-09-13 07:56:00,55.6,54.0,29.76,NW,305,0.0,-999.0,93,-99.99,,,0.00,weatherlink.com 1.10,2013-09-13 11:56:00,
2013-09-13 08:11:00,55.4,54.0,29.76,NNW,346,0.0,-999.0,94,-99.99,,,0.00,weatherlink.com 1.10,2013-09-13 12:11:00,
2013-09-13 08:26:00,55.6,54.0,29.77,NNW,333,1.0,-999.0,94,-99.99,,,0.00,weatherlink.com 1.10,2013-09-13 12:26:00,
2013-09-13 08:41:00,55.6,54.0,29.77,NNW,339,0.0,-999.0,93,-99.99,,,0.00,weatherlink.com 1.10,2013-09-13 12:41:00,
2013-09-13 08:56:00,55.3,53.0,29.77,North,356,0.0,-999.0,93,-99.99,,,0.00,weatherlink.com 1.10,2013-09-13 12:56:00,
2013-09-13 09:11:00,55.4,54.0,29.78,North,352,3.0,-999.0,93,-99.99,,,0.00,weatherlink.com 1.10,2013-09-13 13:11:00,
2013-09-13 09:26:00,55.6,53.0,29.78,NNW,335,2.0,-999.0,92,-99.99,,,0.00,weatherlink.com 1.10,2013-09-13 13:26:00,
2013-09-13 09:41:00,55.6,53.0,29.79,NNW,347,2.0,-999.0,91,-99.99,,,0.00,weatherlink.com 1.10,2013-09-13 13:41:00,
2013-09-13 09:56:00,56.0,53.0,29.79,NNW,343,0.0,-999.0,88,-99.99,,,0.00,weatherlink.com 1.10,2013-09-13 13:56:00,
2013-09-13 10:11:00,56.3,51.0,29.80,NW,325,2.0,-999.0,83,-99.99,,,0.00,weatherlink.com 1.10,2013-09-13 14:11:00,
2013-09-13 10:26:00,56.2,49.0,29.80,North,350,0.0,-999.0,78,-99.99,,,0.00,weatherlink.com 1.10,2013-09-13 14:26:00,
2013-09-13 10:41:00,56.5,50.0,29.81,NNW,346,0.0,-999.0,79,-99.99,,,0.00,weatherlink.com 1.10,2013-09-13 14:41:00,
2013-09-13 10:56:00,56.5,48.0,29.80,North,0,7.0,-999.0,73,-99.99,,,0.00,weatherlink.com 1.10,2013-09-13 14:56:00,
2013-09-13 11:11:00,57.0,48.0,29.81,North,356,3.0,-999.0,72,-99.99,,,0.00,weatherlink.com 1.10,2013-09-13 15:11:00,
2013-09-13 11:26:00,57.8,50.0,29.81,NW,326,5.0,-999.0,75,-99.99,,,0.00,weatherlink.com 1.10,2013-09-13 15:26:00,
2013-09-13 11:41:00,56.6,48.0,29.82,NW,323,6.0,-999.0,72,-99.99,,,0.00,weatherlink.com 1.10,2013-09-13 15:41:00,
2013-09-13 11:56:00,57.6,49.0,29.83,North,359,0.0,-999.0,74,-99.99,,,0.00,weatherlink.com 1.10,2013-09-13 15:56:00,
2013-09-13 12:11:00,57.5,48.0,29.83,NW,306,1.0,-999.0,71,-99.99,,,0.00,weatherlink.com 1.10,2013-09-13 16:11:00,
2013-09-13 12:26:00,57.2,49.0,29.83,NW,319,2.0,-999.0,73,-99.99,,,0.00,weatherlink.com 1.10,2013-09-13 16:26:00,
2013-09-13 12:41:00,58.1,47.0,29.83,NNW,329,0.0,-999.0,67,-99.99,,,0.00,weatherlink.com 1.10,2013-09-13 16:41:00,
2013-09-13 12:56:00,57.0,48.0,29.84,NW,315,0.0,-999.0,71,-99.99,,,0.00,weatherlink.com 1.10,2013-09-13 16:56:00,
2013-09-13 13:11:00,58.0,47.0,29.83,NW,320,9.0,-999.0,67,-99.99,,,0.00,weatherlink.com 1.10,2013-09-13 17:11:00,
2013-09-13 13:26:00,57.8,47.0,29.83,North,356,0.0,-999.0,68,-99.99,,,0.00,weatherlink.com 1.10,2013-09-13 17:26:00,
2013-09-13 13:41:00,57.8,48.0,29.83,NNW,333,0.0,-999.0,69,-99.99,,,0.00,weatherlink.com 1.10,2013-09-13 17:41:00,
2013-09-13 13:56:00,58.3,46.0,29.83,North,357,7.0,-999.0,65,-99.99,,,0.00,weatherlink.com 1.10,2013-09-13 17:56:00,
2013-09-13 14:11:00,58.0,47.0,29.83,North,0,0.0,-999.0,68,-99.99,,,0.00,weatherlink.com 1.10,2013-09-13 18:11:00,
2013-09-13 14:26:00,57.3,46.0,29.83,NW,325,12.0,-999.0,67,-99.99,,,0.00,weatherlink.com 1.10,2013-09-13 18:26:00,
2013-09-13 14:42:00,58.0,47.0,29.83,NNW,343,7.0,-999.0,66,-99.99,,,0.00,weatherlink.com 1.10,2013-09-13 18:42:00,
2013-09-13 14:57:00,57.3,48.0,29.83,NW,319,5.0,-999.0,70,-99.99,,,0.00,weatherlink.com 1.10,2013-09-13 18:57:00,
2013-09-13 15:11:00,57.6,46.0,29.84,North,353,1.0,-999.0,65,-99.99,,,0.00,weatherlink.com 1.10,2013-09-13 19:11:00,
2013-09-13 15:26:00,58.7,46.0,29.83,NNW,329,8.0,-999.0,64,-99.99,,,0.00,weatherlink.com 1.10,2013-09-13 19:26:00,
2013-09-13 15:41:00,56.0,44.0,29.84,NW,304,7.0,-999.0,64,-99.99,,,0.00,weatherlink.com 1.10,2013-09-13 19:41:00,
2013-09-13 15:57:00,58.4,47.0,29.84,North,0,2.0,-999.0,67,-99.99,,,0.00,weatherlink.com 1.10,2013-09-13 19:57:00,
2013-09-13 16:12:00,59.8,45.0,29.84,NNE,18,8.0,-999.0,58,-99.99,,,0.00,weatherlink.com 1.10,2013-09-13 20:12:00,
2013-09-13 16:27:00,59.0,44.0,29.85,NW,319,2.0,-999.0,57,-99.99,,,0.00,weatherlink.com 1.10,2013-09-13 20:27:00,
2013-09-13 16:42:00,60.4,45.0,29.85,NNW,347,10.0,-999.0,58,-99.99,,,0.00,weatherlink.com 1.10,2013-09-13 20:42:00,
2013-09-13 16:57:00,57.6,44.0,29.86,NNW,337,4.0,-999.0,60,-99.99,,,0.00,weatherlink.com 1.10,2013-09-13 20:57:00,
2013-09-13 17:12:00,55.9,43.0,29.87,NW,304,3.0,-999.0,62,-99.99,,,0.00,weatherlink.com 1.10,2013-09-13 21:12:00,
2013-09-13 17:27:00,55.6,44.0,29.87,NNW,335,2.0,-999.0,66,-99.99,,,0.00,weatherlink.com 1.10,2013-09-13 21:27:00,
2013-09-13 17:42:00,56.2,45.0,29.87,NW,325,2.0,-999.0,66,-99.99,,,0.00,weatherlink.com 1.10,2013-09-13 21:42:00,
2013-09-13 17:57:00,55.4,45.0,29.87,NNE,17,2.0,-999.0,68,-99.99,,,0.00,weatherlink.com 1.10,2013-09-13 21:57:00,
2013-09-13 18:12:00,54.8,44.0,29.87,North,0,0.0,-999.0,67,-99.99,,,0.00,weatherlink.com 1.10,2013-09-13 22:12:00,
2013-09-13 18:42:00,53.9,45.0,29.88,North,359,0.0,-999.0,71,-99.99,,,0.00,weatherlink.com 1.10,2013-09-13 22:42:00,
2013-09-13 18:57:00,53.3,44.0,29.88,NNW,343,0.0,-999.0,72,-99.99,,,0.00,weatherlink.com 1.10,2013-09-13 22:57:00,
2013-09-13 19:12:00,52.8,45.0,29.89,NNW,342,1.0,-999.0,74,-99.99,,,0.00,weatherlink.com 1.10,2013-09-13 23:12:00,
2013-09-13 19:27:00,52.2,45.0,29.89,North,0,0.0,-999.0,76,-99.99,,,0.00,weatherlink.com 1.10,2013-09-13 23:27:00,
2013-09-13 19:42:00,52.0,45.0,29.90,NNW,347,0.0,-999.0,77,-99.99,,,0.00,weatherlink.com 1.10,2013-09-13 23:42:00,
2013-09-13 19:57:00,51.9,45.0,29.90,NNW,347,2.0,-999.0,77,-99.99,,,0.00,weatherlink.com 1.10,2013-09-13 23:57:00,
2013-09-13 20:12:00,51.7,45.0,29.91,NNW,344,0.0,-999.0,78,-99.99,,,0.00,weatherlink.com 1.10,2013-09-14 00:12:00,
2013-09-13 20:27:00,51.6,45.0,29.91,NNW,340,2.0,-999.0,78,-99.99,,,0.00,weatherlink.com 1.10,2013-09-14 00:27:00,
2013-09-13 20:42:00,51.4,45.0,29.92,North,0,0.0,-999.0,79,-99.99,,,0.00,weatherlink.com 1.10,2013-09-14 00:42:00,
2013-09-13 20:57:00,51.3,45.0,29.92,NW,311,0.0,-999.0,78,-99.99,,,0.00,weatherlink.com 1.10,2013-09-14 00:57:00,
2013-09-13 21:12:00,51.3,45.0,29.93,NNW,339,0.0,-999.0,79,-99.99,,,0.00,weatherlink.com 1.10,2013-09-14 01:12:00,
2013-09-13 21:27:00,51.1,45.0,29.94,NNW,342,0.0,-999.0,79,-99.99,,,0.00,weatherlink.com 1.10,2013-09-14 01:27:00,
2013-09-13 21:42:00,51.0,45.0,29.94,NNW,333,0.0,-999.0,79,-99.99,,,0.00,weatherlink.com 1.10,2013-09-14 01:42:00,
2013-09-13 21:57:00,51.0,45.0,29.94,NNW,333,0.0,-999.0,79,-99.99,,,0.00,weatherlink.com 1.10,2013-09-14 01:57:00,
2013-09-13 22:12:00,50.8,45.0,29.94,North,350,0.0,-999.0,79,-99.99,,,0.00,weatherlink.com 1.10,2013-09-14 02:12:00,
2013-09-13 22:27:00,50.7,44.0,29.94,NNW,339,0.0,-999.0,79,-99.99,,,0.00,weatherlink.com 1.10,2013-09-14 02:27:00,
2013-09-13 22:42:00,50.5,45.0,29.94,NW,323,0.0,-999.0,80,-99.99,,,0.00,weatherlink.com 1.10,2013-09-14 02:42:00,
2013-09-13 22:57:00,50.5,45.0,29.94,NNW,339,0.0,-999.0,80,-99.99,,,0.00,weatherlink.com 1.10,2013-09-14 02:57:00,
2013-09-13 23:12:00,50.4,44.0,29.95,North,350,0.0,-999.0,80,-99.99,,,0.00,weatherlink.com 1.10,2013-09-14 03:12:00,
2013-09-13 23:27:00,50.2,44.0,29.95,NNW,344,0.0,-999.0,80,-99.99,,,0.00,weatherlink.com 1.10,2013-09-14 03:27:00,
2013-09-13 23:42:00,50.1,44.0,29.95,NNW,342,0.0,-999.0,79,-99.99,,,0.00,weatherlink.com 1.10,2013-09-14 03:42:00,
2013-09-13 23:57:00,49.9,44.0,29.94,NW,316,5.0,-999.0,80,-99.99,,,0.00,weatherlink.com 1.10,2013-09-14 03:57:00,